This is the latest recevied weather packets stored in our database for station/object EA7DYY-12. If no packets are shown the sender has not sent any weather packets the latest 10 day(s).
| Time | Temp. | Humidity | Pressure | Rain* | Wind** | Luminosity | Snow |
|---|---|---|---|---|---|---|---|
| 1788091922 | 22.22° C | 51% | 1158.7 hPa | - | - | - | - |
| 1788091022 | 21.67° C | 51% | 1158.7 hPa | - | - | - | - |
| 1788090122 | 21.67° C | 51% | 1158.8 hPa | - | - | - | - |
| 1788089221 | 21.67° C | 50% | 1158.8 hPa | - | - | - | - |
| 1788088321 | 21.67° C | 50% | 1158.8 hPa | - | - | - | - |
| 1788087421 | 21.67° C | 49% | 1158.8 hPa | - | - | - | - |
| 1788086521 | 21.67° C | 50% | 1159 hPa | - | - | - | - |
| 1788085621 | 21.67° C | 49% | 1159 hPa | - | - | - | - |
| 1788084721 | 22.22° C | 47% | 1159 hPa | - | - | - | - |
| 1788083821 | 22.22° C | 49% | 1159 hPa | - | - | - | - |
| 1788082921 | 21.67° C | 53% | 1158.9 hPa | - | - | - | - |
| 1788082021 | 21.67° C | 52% | 1158.9 hPa | - | - | - | - |
| 1788081121 | 21.67° C | 55% | 1158.9 hPa | - | - | - | - |
| 1788080221 | 21.67° C | 55% | 1158.8 hPa | - | - | - | - |
| 1788079321 | 21.67° C | 56% | 1158.8 hPa | - | - | - | - |
| 1788078421 | 21.67° C | 56% | 1158.7 hPa | - | - | - | - |
| 1788077521 | 21.67° C | 57% | 1158.6 hPa | - | - | - | - |
| 1788076621 | 21.67° C | 56% | 1158.6 hPa | - | - | - | - |
| 1788075720 | 21.67° C | 55% | 1158.5 hPa | - | - | - | - |
| 1788074820 | 21.67° C | 55% | 1158.6 hPa | - | - | - | - |
| 1788073920 | 21.67° C | 56% | 1158.3 hPa | - | - | - | - |
| 1788073020 | 21.11° C | 56% | 1158.2 hPa | - | - | - | - |
| 1788072120 | 21.11° C | 57% | 1157.9 hPa | - | - | - | - |
| 1788071220 | 21.11° C | 56% | 1157.9 hPa | - | - | - | - |
| 1788070320 | 21.11° C | 56% | 1157.7 hPa | - | - | - | - |
* Rain since midnight (hover to see other rain measurements)
** Current wind speed in m/s (hover to see current wind gust speed)